Date String (YYYY-MM-DD hh:mm:ss) UTC,Instrument flags,absolute air pressure of the measurement (hPa),sample flow rate (lpm),inlet stack bypass flow (lpm),air temperature of the measurement (°C),ambient temperature measured by the external sensor (°C),aerosol sample conditioner tube jacket temperature (°C),OPC LED temperature (°C),internal box temperature (°C),relative humidity of the measurement (%),span deviation,mass concentration of particles derived from Lorenz-Mie calculation of OPC scattering (μg/m³),mass concentration of particles derived from Lorenz-Mie calculation of OPC scattering (μg/m³),mass concentration of particles derived from Lorenz-Mie calculation of OPC scattering (μg/m³)
DateTimeUTC,F1_M11,P_M11,Q1_M11,Q2_M11,T1_M11,T2_M11,T3_M11,T4_M11,T5_M11,U1_M11,ZSPAN_M11,X0_M11,X2_M11,X1_M11
2023-08-09 23:00:00,SystemResetWarning,0829.4,5.00,000.00,029.1,026.8,000.0,037.4,030.7,23.4,0000.0,0009.63,0005.38,0004.79
2023-08-09 23:01:00,SystemResetWarning,0829.4,5.00,000.00,029.1,027.2,000.0,037.4,030.8,23.0,0000.0,0010.14,0005.39,0004.78
2023-08-09 23:02:00,SystemResetWarning,0829.4,5.00,000.00,029.2,027.5,000.0,037.5,030.9,23.4,0000.0,0009.97,0005.33,0004.77
2023-08-09 23:03:00,SystemResetWarning,0829.4,4.99,000.00,029.2,027.7,000.0,037.5,030.9,22.9,0000.0,0010.04,0005.30,0004.76
2023-08-09 23:04:00,SystemResetWarning,0829.4,4.99,000.00,029.2,026.5,000.0,037.4,030.8,23.1,0000.0,0010.38,0005.27,0004.74
2023-08-09 23:05:00,SystemResetWarning,0829.3,5.00,000.00,029.1,025.0,000.0,037.3,030.4,23.2,0000.0,0010.46,0005.25,0004.73
2023-08-09 23:06:00,SystemResetWarning,0829.4,5.01,000.00,029.1,024.9,000.0,037.2,030.4,23.5,0000.0,0011.06,0005.21,0004.71
2023-08-09 23:07:00,SystemResetWarning,0829.4,5.00,000.00,029.0,025.3,000.0,037.3,030.3,23.7,0001.4,0011.57,0005.21,0004.69
2023-08-09 23:08:00,SystemResetWarning,0829.4,5.00,000.00,028.9,025.7,000.0,037.3,030.4,23.2,0001.4,0011.59,0005.20,0004.68
2023-08-09 23:09:00,SystemResetWarning,0829.5,5.01,000.00,028.9,026.2,000.0,037.3,030.5,23.4,0001.5,0012.03,0005.20,0004.66
2023-08-09 23:10:00,SystemResetWarning,0829.5,5.00,000.00,029.0,026.6,000.0,037.4,030.6,23.8,0002.1,0013.27,0005.18,0004.64
2023-08-09 23:11:00,SystemResetWarning,0829.4,4.99,000.00,029.0,027.0,000.0,037.4,030.7,23.6,0001.6,0013.26,0005.11,0004.63
2023-08-09 23:12:00,SystemResetWarning,0829.4,5.01,000.00,029.0,027.4,000.0,037.4,030.8,23.6,0001.4,0012.66,0005.10,0004.63
2023-08-09 23:13:00,SystemResetWarning,0829.4,5.00,000.00,029.1,027.6,000.0,037.4,030.8,23.3,0001.6,0012.94,0005.09,0004.62
2023-08-09 23:14:00,SystemResetWarning,0829.4,4.99,000.00,029.1,027.9,000.0,037.5,030.9,23.2,0001.8,0013.84,0005.10,0004.61
2023-08-09 23:15:00,SystemResetWarning,0829.3,4.99,000.00,029.2,026.9,000.0,037.4,030.8,23.5,0002.2,0014.67,0005.13,0004.61
2023-08-09 23:16:00,SystemResetWarning,0829.3,5.00,000.00,029.1,025.3,000.0,037.3,030.5,24.0,0000.4,0014.43,0005.14,0004.61
2023-08-09 23:17:00,SystemResetWarning,0829.4,5.01,000.00,029.0,024.9,000.0,037.2,030.4,23.6,0000.0,0014.52,0005.17,0004.60
2023-08-09 23:18:00,SystemResetWarning,0829.3,5.01,000.00,029.0,025.2,000.0,037.2,030.3,23.2,0000.0,0013.82,0005.16,0004.60
2023-08-09 23:19:00,SystemResetWarning,0829.3,4.98,000.00,028.9,025.7,000.0,037.3,030.3,23.4,0000.0,0014.03,0005.14,0004.59
2023-08-09 23:20:00,SystemResetWarning,0829.4,5.00,000.00,028.9,026.1,000.0,037.3,030.5,23.9,0000.0,0014.08,0005.06,0004.58
2023-08-09 23:21:00,SystemResetWarning,0829.4,5.01,000.00,029.0,026.6,000.0,037.3,030.6,23.8,0000.0,0012.74,0005.01,0004.58
2023-08-09 23:22:00,SystemResetWarning,0829.4,5.00,000.00,029.0,027.0,000.0,037.4,030.7,23.9,0000.0,0012.74,0005.00,0004.57
2023-08-09 23:23:00,SystemResetWarning,0829.4,4.99,000.00,029.0,027.3,000.0,037.4,030.8,23.7,0000.0,0012.79,0005.00,0004.56
2023-08-09 23:24:00,SystemResetWarning,0829.4,5.00,000.00,029.1,027.6,000.0,037.4,030.8,23.7,0000.0,0012.50,0005.01,0004.57
2023-08-09 23:25:00,SystemResetWarning,0829.4,5.00,000.00,029.1,027.8,000.0,037.4,030.9,23.5,0000.0,0011.63,0005.03,0004.58
2023-08-09 23:26:00,SystemResetWarning,0829.4,5.00,000.00,029.2,027.9,000.0,037.5,031.0,23.1,0000.0,0010.73,0005.05,0004.59
2023-08-09 23:27:00,SystemResetWarning,0829.4,4.98,000.00,029.2,026.5,000.0,037.4,030.8,23.0,0000.0,0011.39,0005.06,0004.59
2023-08-09 23:28:00,SystemResetWarning,0829.4,5.01,000.00,029.1,025.0,000.0,037.3,030.4,23.0,0000.0,0010.71,0005.09,0004.61
2023-08-09 23:29:00,SystemResetWarning,0829.4,5.01,000.00,029.0,025.0,000.0,037.2,030.4,23.2,0000.0,0010.59,0005.11,0004.61
2023-08-09 23:30:00,SystemResetWarning,0829.4,5.00,000.00,029.0,025.3,000.0,037.2,030.3,22.8,0000.0,0010.55,0005.12,0004.62
2023-08-09 23:31:00,SystemResetWarning,0829.4,5.00,000.00,028.9,025.8,000.0,037.3,030.4,23.3,0000.0,0010.20,0005.15,0004.62
2023-08-09 23:32:00,SystemResetWarning,0829.5,5.00,000.00,028.9,026.3,000.0,037.3,030.5,23.5,0000.0,0010.34,0005.18,0004.64
2023-08-09 23:33:00,SystemResetWarning,0829.4,5.00,000.00,029.0,026.7,000.0,037.3,030.6,23.3,0000.0,0010.51,0005.23,0004.66
2023-08-09 23:34:00,SystemResetWarning,0829.5,5.01,000.00,029.0,027.1,000.0,037.4,030.7,23.4,0000.0,0010.55,0005.25,0004.67
2023-08-09 23:35:00,SystemResetWarning,0829.5,5.00,000.00,029.1,027.5,000.0,037.4,030.8,23.5,0000.0,0010.66,0005.27,0004.69
2023-08-09 23:36:00,SystemResetWarning,0829.5,5.00,000.00,029.1,027.7,000.0,037.4,030.9,23.1,0000.0,0010.71,0005.25,0004.69
2023-08-09 23:37:00,SystemResetWarning,0829.5,4.99,000.00,029.2,027.9,000.0,037.4,030.9,22.9,0000.0,0010.63,0005.21,0004.68
2023-08-09 23:38:00,SystemResetWarning,0829.5,4.99,000.00,029.2,026.8,000.0,037.4,030.8,23.1,0000.0,0009.87,0005.20,0004.69
2023-08-09 23:39:00,SystemResetWarning,0829.4,5.01,000.00,029.1,025.2,000.0,037.3,030.5,23.1,0000.0,0009.60,0005.15,0004.68
2023-08-09 23:40:00,SystemResetWarning,0829.5,5.01,000.00,029.0,024.9,000.0,037.2,030.4,23.4,0000.0,0009.63,0005.14,0004.69
2023-08-09 23:41:00,SystemResetWarning,0829.5,5.00,000.00,029.0,025.2,000.0,037.2,030.3,23.4,-000.3,0009.75,0005.14,0004.68
2023-08-09 23:42:00,SystemResetWarning,0829.5,5.00,000.00,028.9,025.7,000.0,037.3,030.3,23.8,-000.8,0010.22,0005.22,0004.69
2023-08-09 23:43:00,SystemResetWarning,0829.5,4.99,000.00,028.9,026.1,000.0,037.3,030.4,23.9,0000.0,0010.12,0005.25,0004.70
2023-08-09 23:44:00,SystemResetWarning,0829.4,5.00,000.00,028.9,026.6,000.0,037.3,030.6,23.4,0000.0,0009.85,0005.26,0004.69
2023-08-09 23:45:00,SystemResetWarning,0829.5,4.99,000.00,029.0,027.0,000.0,037.4,030.7,23.0,0000.0,0010.12,0005.27,0004.69
2023-08-09 23:46:00,SystemResetWarning,0829.5,4.99,000.00,029.0,027.3,000.0,037.4,030.7,24.4,0000.0,0010.47,0005.28,0004.68
2023-08-09 23:47:00,SystemResetWarning,0829.4,4.99,000.00,029.1,027.6,000.0,037.4,030.8,24.5,0000.0,0010.45,0005.30,0004.69
2023-08-09 23:48:00,SystemResetWarning,0829.4,5.00,000.00,029.1,027.8,000.0,037.4,030.9,24.3,0000.0,0010.40,0005.31,0004.71
2023-08-09 23:49:00,SystemResetWarning,0829.5,5.00,000.00,029.2,027.9,000.0,037.4,030.9,24.4,0000.0,0010.97,0005.33,0004.72
2023-08-09 23:50:00,SystemResetWarning,0829.5,5.00,000.00,029.2,026.3,000.0,037.4,030.7,24.7,0000.0,0010.97,0005.34,0004.73
2023-08-09 23:51:00,SystemResetWarning,0829.5,5.00,000.00,029.1,024.9,000.0,037.3,030.4,25.0,0000.0,0011.68,0005.36,0004.72
2023-08-09 23:52:00,SystemResetWarning,0829.5,5.01,000.00,029.0,024.9,000.0,037.2,030.3,24.7,0000.0,0011.71,0005.34,0004.72
2023-08-09 23:53:00,SystemResetWarning,0829.4,5.02,000.00,028.9,025.3,000.0,037.2,030.2,24.8,0000.0,0011.16,0005.32,0004.71
2023-08-09 23:54:00,SystemResetWarning,0829.4,5.00,000.00,028.9,025.8,000.0,037.3,030.3,24.4,0000.0,0011.39,0005.30,0004.72
2023-08-09 23:55:00,SystemResetWarning,0829.4,5.00,000.00,028.9,026.2,000.0,037.3,030.5,24.2,0000.0,0011.80,0005.32,0004.73
2023-08-09 23:56:00,SystemResetWarning,0829.4,5.00,000.00,028.9,026.7,000.0,037.3,030.6,24.2,0000.0,0011.48,0005.32,0004.73
2023-08-09 23:57:00,SystemResetWarning,0829.4,5.00,000.00,029.0,027.0,000.0,037.4,030.7,23.7,0000.0,0011.96,0005.32,0004.73
2023-08-09 23:58:00,SystemResetWarning,0829.4,4.99,000.00,029.0,027.4,000.0,037.4,030.8,23.0,0000.0,0012.50,0005.33,0004.73
2023-08-09 23:59:00,SystemResetWarning,0829.4,5.00,000.00,029.1,027.6,000.0,037.4,030.8,23.1,0000.0,0012.62,0005.33,0004.73
